Regina,

5:19 PM CST on December 02, 2016 (GMT -0600)
Regina

Weather History for CYQR - March, 2013

Change the Weather History Date:

Friday, March 15, 2013

  Actual Average Record
Temperature  
Mean Temperature 8 °F -  
Max Temperature 18 °F 25 °F 57 °F (2012)
Min Temperature -4 °F 8 °F -22 °F (1997)
Degree Days  
Heating Degree Days 57    
Moisture  
Dew Point 4 °F    
Average Humidity 81    
Maximum Humidity 86    
Minimum Humidity 66    
Precipitation  
Precipitation 0.00 in - - ()
Sea Level Pressure  
Sea Level Pressure 30.23 in    
Wind  
Wind Speed 14 mph ()    
Max Wind Speed 23 mph    
Max Gust Speed 29 mph    
Visibility 4.1 miles    
Events Snow    
Averages and records for this station are not official NWS values.
T = Trace of Precipitation, MM = Missing Value Source: Averaged Metar Reports

Daily Weather History Graph

Daily Weather History Graph

Search for Another Location

Airport or City:

Trip Planner

Search our weather history database for the weather conditions in past years. The results will help you decide how hot, cold, wet, or windy it might be!

Date:

Astronomy

Mar. 15, 2013 Rise Set
Actual Time 7:11 AM CST 7:04 PM CST
Civil Twilight 6:39 AM CST 7:36 PM CST
Nautical Twilight 6:01 AM CST 8:14 PM CST
Astronomical Twilight 5:22 AM CST 8:54 PM CST
Moon 8:36 AM CST (3/15) 11:50 PM CST (3/15)
Length of Visible Light 12h 57m
Length of Day
11h 52m
Waxing Crescent, 16% of the Moon is Illuminated
Mar 15
Waxing Crescent
Mar 19
First Quarter
Mar 27
Full
Apr 2
Last Quarter
Apr 10
New

Hourly Weather History & Observations

Time (CST) Temp. Windchill Dew Point Humidity Pressure Visibility Wind Dir Wind Speed Gust Speed Precip Events Conditions
12:00 AM 18 °F - 15 °F 82% 30.27 in 0 mi ENE 10.4 mph - -  
12:00 AM 17.6 °F 5.7 °F 14.0 °F 86% 30.27 in 1.0 mi ENE 10.4 mph - N/A Snow Light Snow
12:34 AM 17.6 °F 5.7 °F - N/A% - 1.5 mi East 10.4 mph - N/A Snow Light Snow
1:00 AM 17.6 °F 1.7 °F 14.0 °F 86% 30.25 in 1.8 mi East 18.4 mph - N/A Snow Light Snow
1:19 AM 17.6 °F 3.2 °F - N/A% - 2.0 mi East 15.0 mph - N/A Snow Light Snow
1:31 AM 17.6 °F 3.2 °F - N/A% - 3.0 mi East 15.0 mph 23.0 mph N/A Snow Light Snow
2:00 AM 15.8 °F -0.2 °F 12.2 °F 86% 30.22 in 2.5 mi East 17.3 mph - N/A Snow Light Snow
3:00 AM 15.8 °F -1.5 °F 12.2 °F 86% 30.20 in 2.0 mi East 20.7 mph - N/A Snow Light Snow
3:17 AM 15.8 °F -1.5 °F - N/A% - 1.5 mi East 20.7 mph - N/A Snow Light Snow
3:26 AM 15.8 °F -1.5 °F - N/A% - 0.8 mi East 20.7 mph - N/A Snow Light Snow
3:41 AM 15.8 °F -1.9 °F - N/A% - 0.6 mi East 21.9 mph - N/A Snow Light Snow
4:00 AM 15.8 °F -0.6 °F 12.2 °F 86% 30.19 in 0.8 mi ESE 18.4 mph 25.3 mph N/A Snow Light Snow
4:27 AM 14.0 °F -3.0 °F - N/A% - 0.5 mi ESE 18.4 mph 27.6 mph N/A Snow Light Snow
4:32 AM 14.0 °F -3.9 °F - N/A% - 0.8 mi ESE 20.7 mph - N/A Snow Light Snow
4:44 AM 14.0 °F -3.9 °F - N/A% - 1.2 mi ESE 20.7 mph - N/A Snow Light Snow
5:00 AM 14.0 °F -3.9 °F 10.4 °F 86% 30.17 in 1.0 mi ESE 20.7 mph - N/A Snow Light Snow
5:14 AM 14.0 °F -3.9 °F - N/A% - 1.0 mi ESE 20.7 mph - N/A Snow Light Snow
5:21 AM 14.0 °F -3.4 °F - N/A% - 0.8 mi ESE 19.6 mph - N/A Snow Light Snow
5:33 AM 12.2 °F -7.1 °F - N/A% - 1.0 mi ESE 23.0 mph - N/A Snow Light Snow
6:00 AM 12 °F - 9 °F 81% 30.15 in 1 mi East 17.3 mph - -  
6:00 AM 12.2 °F -5.3 °F 8.6 °F 85% 30.15 in 2.0 mi East 18.4 mph 25.3 mph N/A Snow Light Snow
6:20 AM 12.2 °F -5.3 °F - N/A% - 1.5 mi East 18.4 mph - N/A Snow Light Snow
7:00 AM 10.4 °F -8.6 °F 6.8 °F 85% 30.15 in 1.2 mi East 20.7 mph - N/A Snow Light Snow
7:05 AM 10.4 °F -7.2 °F - N/A% - 0.8 mi East 17.3 mph - N/A Snow Light Snow
7:31 AM 8.6 °F -11.4 °F - N/A% - 0.6 mi East 21.9 mph - N/A Snow Light Snow
8:00 AM 8.6 °F -11.4 °F 5.0 °F 85% 30.14 in 0.6 mi East 21.9 mph 28.8 mph N/A Snow Light Snow
8:25 AM 8.6 °F -9.5 °F - N/A% - 0.8 mi East 17.3 mph 23.0 mph N/A Snow Light Snow
9:00 AM 6.8 °F -13.4 °F 3.2 °F 85% 30.16 in 0.8 mi ESE 20.7 mph - N/A Snow Light Snow
9:34 AM 6.8 °F -12.9 °F - N/A% - 1.0 mi East 19.6 mph 25.3 mph N/A Snow Light Snow
10:00 AM 6.8 °F -13.8 °F 3.2 °F 85% 30.16 in 1.0 mi East 21.9 mph - N/A Snow Light Snow
10:08 AM 6.8 °F -12.9 °F - N/A% - 0.6 mi ESE 19.6 mph 25.3 mph N/A Snow Light Snow
10:33 AM 6.8 °F -11.8 °F - N/A% - 1.5 mi ESE 17.3 mph 27.6 mph N/A Snow Light Snow
11:00 AM 6.8 °F -12.9 °F 3.2 °F 85% 30.19 in 2.0 mi ESE 19.6 mph 25.3 mph N/A Snow Light Snow
12:00 PM 7 °F - 3 °F 74%  in 2 mi ESE 18.4 mph - -   Overcast
12:00 PM 6.8 °F -12.4 °F 3.2 °F 85% 30.21 in 2.5 mi ESE 18.4 mph - N/A Snow Light Snow
1:00 PM 6.8 °F -11.8 °F 3.2 °F 85% 30.21 in 2.5 mi ESE 17.3 mph - N/A Snow Light Snow
1:32 PM 6.8 °F -11.8 °F - N/A% - 4.0 mi East 17.3 mph - N/A Snow Light Snow
2:00 PM 8.6 °F -7.7 °F 3.2 °F 79% 30.23 in 4.0 mi East 13.8 mph - N/A Snow Light Snow
3:00 PM 8.6 °F -7.0 °F 3.2 °F 79% 30.23 in 4.0 mi East 12.7 mph - N/A Snow Light Snow
4:00 PM 6.8 °F -5.9 °F 1.4 °F 79% 30.26 in 15.0 mi East 8.1 mph - N/A   Mostly Cloudy
5:00 PM 8.6 °F 2.0 °F 1.4 °F 73% 30.27 in 15.0 mi ESE 3.5 mph - N/A   Partly Cloudy
6:00 PM 6 °F - 0 °F 66%  in 9 mi SE 5.8 mph - -  
6:00 PM 5.0 °F -4.1 °F -0.4 °F 78% 30.28 in 15.0 mi SSE 4.6 mph - N/A   Partly Cloudy
7:00 PM 1.4 °F -9.9 °F -4.0 °F 78% 30.29 in 15.0 mi South 5.8 mph - N/A   Partly Cloudy
8:00 PM 1.4 °F - -4.0 °F 78% 30.30 in 15.0 mi South 2.3 mph - N/A   Partly Cloudy
8:29 PM -0.4 °F - - N/A% - 15.0 mi South 2.3 mph - N/A Snow Light Snow
9:00 PM -0.4 °F - -5.8 °F 78% 30.33 in 15.0 mi Calm Calm - N/A Snow Light Snow
10:00 PM -0.4 °F - -5.8 °F 78% 30.33 in 5.0 mi Calm Calm - N/A Snow Light Snow
11:00 PM -2.2 °F - -7.6 °F 78% 30.33 in 15.0 mi West 2.3 mph - N/A   Scattered Clouds
11:07 PM -4.0 °F -12.4 °F - N/A% - 12.0 mi WSW 3.5 mph - N/A   Scattered Clouds